• In Deutschland
  • Länderverzeichnis
  • Für 7 Tage
  • Wassertemperatur
  • Satellitenkarten
  • Wetterkarte
  • Widgets
  • user-avatar
    Anmelden

    Stündliche Wetter Königswinter

    Heute, 21 Juli, Samstag

    Zeit Temperatur Niederschläge Wind Luftdruck Luftfeuchtigkeit
    00:00 +20°C° 0 mm 1 m/S 752 mmHg 67%
    01:00 +20°C° 0,1 mm 1 m/S 752 mmHg 70%
    02:00 +19°C° 0,1 mm 1 m/S 752 mmHg 73%
    03:00 +18°C° 0,1 mm 1 m/S 752 mmHg 76%
    04:00 +19°C° 0 mm 1 m/S 752 mmHg 75%
    05:00 +20°C° 0 mm 1 m/S 752 mmHg 74%
    06:00 +21°C° 0 mm 1 m/S 753 mmHg 70%
    07:00 +23°C° 0 mm 1 m/S 753 mmHg 62%
    08:00 +25°C° 0 mm 1 m/S 753 mmHg 55%
    09:00 +27°C° 0 mm 1 m/S 753 mmHg 48%
    10:00 +28°C° 0,1 mm 1 m/S 753 mmHg 46%
    11:00 +29°C° 0,1 mm 1 m/S 753 mmHg 44%
    12:00 +30°C° 0,1 mm 1 m/S 753 mmHg 43%
    13:00 +30°C° 0,3 mm 1 m/S 752 mmHg 45%
    14:00 +29°C° 0,3 mm 1 m/S 752 mmHg 48%
    15:00 +29°C° 0,3 mm 1 m/S 752 mmHg 50%
    16:00 +28°C° 0,1 mm 1 m/S 752 mmHg 54%
    17:00 +27°C° 0,1 mm 1 m/S 752 mmHg 58%
    18:00 +27°C° 0,1 mm 1 m/S 752 mmHg 62%
    19:00 +25°C° 0 mm 1 m/S 753 mmHg 65%
    20:00 +24°C° 0 mm 1 m/S 753 mmHg 69%
    21:00 +22°C° 0 mm 1 m/S 753 mmHg 72%
    22:00 +22°C° 0 mm 1 m/S 753 mmHg 74%
    23:00 +21°C° 0 mm 1 m/S 754 mmHg 77%

    Morgen, 22 Juli, Sonntag

    Zeit Temperatur Niederschläge Wind Luftdruck Luftfeuchtigkeit
    00:00 +20°C° 0 mm 1 m/S 754 mmHg 79%
    01:00 +19°C° 0 mm 1 m/S 754 mmHg 82%
    02:00 +19°C° 0 mm 1 m/S 754 mmHg 85%
    03:00 +17°C° 0 mm 2 m/S 754 mmHg 87%
    04:00 +18°C° 0 mm 2 m/S 754 mmHg 85%
    05:00 +19°C° 0 mm 2 m/S 754 mmHg 83%
    06:00 +19°C° 0 mm 2 m/S 755 mmHg 82%
    07:00 +21°C° 0 mm 2 m/S 755 mmHg 75%
    08:00 +24°C° 0 mm 3 m/S 755 mmHg 68%
    09:00 +25°C° 0 mm 3 m/S 755 mmHg 61%
    10:00 +26°C° 0,1 mm 3 m/S 755 mmHg 55%
    11:00 +28°C° 0,1 mm 3 m/S 755 mmHg 50%
    12:00 +29°C° 0,1 mm 3 m/S 754 mmHg 45%
    13:00 +29°C° 0 mm 3 m/S 754 mmHg 44%
    14:00 +29°C° 0 mm 3 m/S 754 mmHg 44%
    15:00 +29°C° 0 mm 4 m/S 754 mmHg 43%
    16:00 +28°C° 0 mm 3 m/S 754 mmHg 48%
    17:00 +27°C° 0 mm 3 m/S 755 mmHg 53%
    18:00 +26°C° 0 mm 3 m/S 755 mmHg 58%
    19:00 +25°C° 0 mm 2 m/S 755 mmHg 63%
    20:00 +23°C° 0 mm 2 m/S 755 mmHg 68%
    21:00 +21°C° 0 mm 1 m/S 756 mmHg 73%
    22:00 +21°C° 0 mm 1 m/S 756 mmHg 75%
    23:00 +20°C° 0 mm 1 m/S 756 mmHg 78%

    übermorgen, 23 Juli, Montag

    Zeit Temperatur Niederschläge Wind Luftdruck Luftfeuchtigkeit
    00:00 +19°C° 0 mm 1 m/S 756 mmHg 80%
    01:00 +19°C° 0 mm 1 m/S 756 mmHg 81%
    02:00 +18°C° 0 mm 1 m/S 756 mmHg 81%
    03:00 +18°C° 0 mm 1 m/S 756 mmHg 82%
    04:00 +19°C° 0 mm 1 m/S 757 mmHg 79%
    05:00 +20°C° 0 mm 1 m/S 757 mmHg 75%
    06:00 +21°C° 0 mm 1 m/S 757 mmHg 71%
    07:00 +22°C° 0 mm 1 m/S 757 mmHg 65%
    08:00 +24°C° 0 mm 1 m/S 757 mmHg 59%
    09:00 +26°C° 0 mm 1 m/S 757 mmHg 53%
    10:00 +27°C° 0 mm 1 m/S 757 mmHg 50%
    11:00 +28°C° 0 mm 1 m/S 757 mmHg 48%
    12:00 +29°C° 0 mm 2 m/S 756 mmHg 45%
    13:00 +29°C° 0 mm 2 m/S 756 mmHg 46%
    14:00 +29°C° 0 mm 2 m/S 756 mmHg 47%
    15:00 +29°C° 0 mm 2 m/S 756 mmHg 48%
    16:00 +29°C° 0 mm 1 m/S 756 mmHg 52%
    17:00 +28°C° 0 mm 1 m/S 756 mmHg 56%
    18:00 +27°C° 0 mm 1 m/S 756 mmHg 60%
    19:00 +26°C° 0 mm 1 m/S 756 mmHg 65%
    20:00 +24°C° 0 mm 1 m/S 757 mmHg 70%
    21:00 +22°C° 0 mm 1 m/S 757 mmHg 75%
    22:00 +22°C° 0 mm 1 m/S 757 mmHg 77%
    23:00 +21°C° 0 mm 1 m/S 757 mmHg 79%

    24 Juli, Dienstag

    Zeit Temperatur Niederschläge Wind Luftdruck Luftfeuchtigkeit
    00:00 +21°C° 0 mm 1 m/S 756 mmHg 81%
    01:00 +20°C° 0 mm 1 m/S 756 mmHg 82%
    02:00 +20°C° 0 mm 1 m/S 756 mmHg 83%
    03:00 +20°C° 0 mm 1 m/S 756 mmHg 84%
    04:00 +19°C° 0 mm 0 m/S 756 mmHg 81%
    05:00 +20°C° 0 mm 0 m/S 756 mmHg 77%
    06:00 +21°C° 0 mm 0 m/S 756 mmHg 73%
    07:00 +25°C° 0 mm 1 m/S 756 mmHg 66%
    08:00 +27°C° 0 mm 1 m/S 756 mmHg 59%
    09:00 +29°C° 0 mm 1 m/S 756 mmHg 52%
    10:00 +30°C° 0 mm 1 m/S 755 mmHg 50%
    11:00 +31°C° 0 mm 1 m/S 755 mmHg 47%
    12:00 +32°C° 0 mm 1 m/S 755 mmHg 45%
    13:00 +32°C° 0 mm 1 m/S 755 mmHg 45%
    14:00 +31°C° 0 mm 1 m/S 754 mmHg 46%
    15:00 +31°C° 0 mm 1 m/S 754 mmHg 46%
    16:00 +31°C° 0 mm 1 m/S 754 mmHg 50%
    17:00 +30°C° 0 mm 1 m/S 754 mmHg 55%
    18:00 +29°C° 0 mm 1 m/S 754 mmHg 59%
    19:00 +28°C° 0,1 mm 1 m/S 754 mmHg 63%
    20:00 +26°C° 0,1 mm 1 m/S 754 mmHg 67%
    21:00 +24°C° 0,1 mm 1 m/S 755 mmHg 71%
    22:00 +24°C° 0 mm 1 m/S 755 mmHg 73%
    23:00 +23°C° 0 mm 1 m/S 755 mmHg 75%

    25 Juli, Mittwoch

    Zeit Temperatur Niederschläge Wind Luftdruck Luftfeuchtigkeit
    00:00 +23°C° 0 mm 1 m/S 755 mmHg 78%
    01:00 +22°C° 0 mm 1 m/S 755 mmHg 79%
    02:00 +22°C° 0 mm 1 m/S 755 mmHg 81%
    03:00 +22°C° 0 mm 1 m/S 755 mmHg 82%
    04:00 +23°C° 0 mm 1 m/S 755 mmHg 79%
    05:00 +24°C° 0 mm 1 m/S 755 mmHg 76%
    06:00 +25°C° 0 mm 1 m/S 755 mmHg 74%
    07:00 +26°C° 0,2 mm 1 m/S 755 mmHg 68%
    08:00 +28°C° 0,2 mm 1 m/S 755 mmHg 63%
    09:00 +30°C° 0,2 mm 1 m/S 755 mmHg 57%
    10:00 +31°C° 0,4 mm 1 m/S 755 mmHg 54%
    11:00 +32°C° 0,4 mm 1 m/S 755 mmHg 52%
    12:00 +32°C° 0,4 mm 1 m/S 755 mmHg 49%
    13:00 +32°C° 0,3 mm 1 m/S 755 mmHg 49%
    14:00 +30°C° 0,3 mm 0 m/S 755 mmHg 48%
    15:00 +30°C° 0,3 mm 0 m/S 755 mmHg 48%
    16:00 +29°C° 0,2 mm 0 m/S 755 mmHg 52%
    17:00 +30°C° 0,2 mm 1 m/S 755 mmHg 57%
    18:00 +29°C° 0,2 mm 1 m/S 755 mmHg 61%
    19:00 +28°C° 0 mm 1 m/S 755 mmHg 63%
    20:00 +27°C° 0 mm 1 m/S 755 mmHg 65%
    21:00 +26°C° 0 mm 1 m/S 756 mmHg 67%
    22:00 +25°C° 0 mm 1 m/S 756 mmHg 69%
    23:00 +25°C° 0 mm 1 m/S 756 mmHg 71%

    26 Juli, Donnerstag

    Zeit Temperatur Niederschläge Wind Luftdruck Luftfeuchtigkeit
    00:00 +24°C° 0 mm 1 m/S 756 mmHg 73%
    01:00 +24°C° 0 mm 1 m/S 756 mmHg 75%
    02:00 +23°C° 0 mm 1 m/S 756 mmHg 78%
    03:00 +21°C° 0 mm 0 m/S 756 mmHg 80%
    04:00 +22°C° 0 mm 0 m/S 756 mmHg 78%
    05:00 +24°C° 0 mm 1 m/S 756 mmHg 75%
    06:00 +25°C° 0 mm 1 m/S 756 mmHg 73%
    07:00 +27°C° 0,1 mm 1 m/S 756 mmHg 66%
    08:00 +29°C° 0,1 mm 1 m/S 756 mmHg 59%
    09:00 +31°C° 0,1 mm 1 m/S 756 mmHg 52%
    10:00 +32°C° 0,1 mm 2 m/S 756 mmHg 49%
    11:00 +32°C° 0,1 mm 2 m/S 756 mmHg 45%
    12:00 +34°C° 0,1 mm 2 m/S 756 mmHg 42%
    13:00 +34°C° 0 mm 2 m/S 756 mmHg 41%
    14:00 +34°C° 0 mm 2 m/S 756 mmHg 40%
    15:00 +35°C° 0 mm 2 m/S 755 mmHg 39%
    16:00 +34°C° 0 mm 2 m/S 755 mmHg 43%
    17:00 +32°C° 0 mm 2 m/S 755 mmHg 48%
    18:00 +31°C° 0 mm 2 m/S 755 mmHg 53%
    19:00 +29°C° 0 mm 2 m/S 756 mmHg 56%
    20:00 +28°C° 0 mm 2 m/S 756 mmHg 59%
    21:00 +27°C° 0 mm 2 m/S 756 mmHg 62%
    22:00 +26°C° 0 mm 2 m/S 756 mmHg 64%
    23:00 +25°C° 0 mm 2 m/S 756 mmHg 67%
    Mehr zeigen